Location: Kalberh�ni
(46.4610°N, 7.2453°E)
Time: 08:28:42
(UTC+00:00)

deb Kosmos-2227 - Pass Details

Date: 19 August 2022
Orbit: 774 x 865 km, 70.9° (Epoch: 26 September)

Event Time Altitude Azimuth Distance (km) Brightness Sun altitude
Rises 23:37:01 0° 322° (NW) 3,367 ? -31.0°
Reaches altitude 10° 23:39:55 10° 308° (NW) 2,445 ? -31.0°
Enters shadow 23:42:31 20° 282° (WNW) 1,860 ? -31.0°
